Total_Precipitation_Accumulation
0.42 0.34 0.39 0.43 0.38 0.37 0.56 0.61 0.51 0.31 0.27 0.29 0.27 0.27 0.30 0.31 0.32 0.30 0.31 0.34 0.38 0.44 0.49 0.54 0.61 0.70 0.75 0.78 0.80 0.84 0.94 0.99 1.03 1.05 1.11 1.13 1.10 1.23 1.40 1.35 1.20 1.12 1.09 1.14
0.36 0.27 0.31 0.33 0.28 0.30 0.34 0.35 0.32 0.24 0.25 0.26 0.24 0.20 0.23 0.28 0.32 0.34 0.36 0.37 0.38 0.44 0.48 0.55 0.63 0.72 0.82 0.82 0.81 0.77 0.83 0.92 0.98 1.06 1.18 1.18 1.11 1.14 1.26 1.34 1.27 1.16 1.09 1.08
0.54 0.28 0.47 0.52 0.37 0.35 0.36 0.35 0.36 0.39 0.33 0.26 0.25 0.25 0.29 0.34 0.37 0.38 0.39 0.41 0.41 0.46 0.51 0.59 0.64 0.73 0.83 0.85 0.83 0.79 0.79 0.85 0.91 0.96 1.12 1.18 1.16 1.20 1.24 1.29 1.35 1.33 1.17 1.06
0.90 0.64 0.92 0.48 0.25 0.28 0.33 0.37 0.39 0.38 0.31 0.30 0.32 0.30 0.31 0.36 0.44 0.44 0.42 0.42 0.43 0.48 0.53 0.56 0.62 0.67 0.75 0.79 0.78 0.82 0.82 0.86 0.90 0.91 0.96 1.10 1.20 1.22 1.24 1.25 1.27 1.33 1.27 1.15
1.36 0.98 0.55 0.26 0.22 0.29 0.38 0.43 0.36 0.31 0.29 0.26 0.24 0.22 0.23 0.24 0.32 0.41 0.42 0.43 0.46 0.50 0.53 0.53 0.55 0.60 0.71 0.78 0.76 0.82 0.89 0.91 0.89 0.85 0.88 0.99 1.09 1.20 1.24 1.24 1.19 1.21 1.20 1.18
1.55 1.18 0.56 0.34 0.22 0.20 0.31 0.53 0.33 0.28 0.30 0.28 0.28 0.35 0.28 0.21 0.28 0.37 0.36 0.39 0.45 0.47 0.45 0.48 0.53 0.56 0.68 0.77 0.73 0.80 0.86 0.91 0.84 0.76 0.75 0.78 0.89 1.09 1.20 1.20 1.14 1.14 1.14 1.15
1.32 1.07 0.48 0.31 0.22 0.23 0.50 0.59 0.31 0.28 0.30 0.30 0.35 0.41 0.31 0.27 0.31 0.35 0.32 0.35 0.38 0.41 0.42 0.50 0.55 0.56 0.63 0.73 0.78 0.81 0.85 0.91 0.82 0.75 0.74 0.76 0.83 1.00 1.13 1.19 1.17 1.11 1.07 1.08
0.99 1.12 0.61 0.30 0.31 0.51 0.59 0.33 0.25 0.23 0.24 0.25 0.25 0.23 0.22 0.25 0.30 0.32 0.28 0.28 0.30 0.34 0.39 0.46 0.52 0.57 0.63 0.71 0.77 0.84 0.88 0.86 0.85 0.82 0.79 0.81 0.85 0.97 1.10 1.17 1.22 1.16 1.06 1.03
0.72 0.63 0.43 0.35 0.44 0.46 0.37 0.28 0.21 0.22 0.20 0.20 0.20 0.20 0.24 0.26 0.28 0.30 0.29 0.28 0.28 0.32 0.36 0.44 0.51 0.57 0.67 0.74 0.73 0.80 0.84 0.86 0.86 0.86 0.84 0.85 0.90 0.98 1.10 1.16 1.19 1.17 1.08 1.01
0.53 0.35 0.29 0.30 0.32 0.31 0.27 0.23 0.20 0.20 0.20 0.19 0.19 0.19 0.22 0.25 0.25 0.27 0.28 0.27 0.28 0.31 0.35 0.44 0.51 0.55 0.65 0.72 0.70 0.70 0.75 0.82 0.81 0.84 0.89 0.92 0.96 0.99 1.06 1.15 1.21 1.12 1.05 0.97
0.47 0.29 0.25 0.25 0.25 0.26 0.23 0.20 0.18 0.19 0.20 0.20 0.20 0.20 0.21 0.24 0.25 0.26 0.30 0.30 0.31 0.34 0.37 0.45 0.54 0.60 0.66 0.67 0.65 0.66 0.68 0.78 0.84 0.87 0.93 0.95 0.97 1.01 1.08 1.10 1.23 1.18 1.05 0.99
0.45 0.29 0.33 0.30 0.25 0.25 0.23 0.22 0.22 0.22 0.22 0.19 0.21 0.25 0.23 0.24 0.26 0.28 0.32 0.34 0.33 0.35 0.39 0.47 0.55 0.66 0.69 0.64 0.62 0.65 0.69 0.74 0.82 0.89 0.90 0.89 0.86 0.93 1.08 1.11 1.15 1.11 1.05 1.03
0.27 0.25 0.26 0.25 0.23 0.23 0.23 0.21 0.21 0.22 0.23 0.21 0.20 0.23 0.26 0.27 0.26 0.29 0.32 0.35 0.40 0.42 0.46 0.51 0.56 0.66 0.69 0.64 0.60 0.61 0.68 0.73 0.79 0.86 0.84 0.79 0.76 0.76 0.87 1.03 1.12 1.11 1.07 1.02
0.15 0.18 0.21 0.18 0.18 0.17 0.17 0.17 0.17 0.18 0.18 0.19 0.20 0.21 0.24 0.25 0.24 0.27 0.32 0.38 0.44 0.45 0.48 0.52 0.56 0.63 0.67 0.62 0.59 0.59 0.64 0.74 0.78 0.81 0.81 0.79 0.76 0.75 0.78 0.86 0.97 1.03 1.08 1.04
0.10 0.13 0.16 0.13 0.12 0.12 0.13 0.14 0.14 0.15 0.15 0.15 0.16 0.19 0.22 0.25 0.27 0.30 0.34 0.40 0.45 0.46 0.49 0.53 0.58 0.67 0.67 0.61 0.60 0.61 0.66 0.70 0.71 0.75 0.79 0.80 0.79 0.80 0.82 0.85 0.88 0.93 0.99 1.12
0.11 0.12 0.13 0.12 0.13 0.13 0.13 0.14 0.14 0.14 0.15 0.15 0.16 0.17 0.19 0.25 0.30 0.36 0.40 0.44 0.48 0.51 0.54 0.57 0.61 0.68 0.65 0.59 0.59 0.61 0.68 0.78 0.75 0.75 0.79 0.81 0.82 0.86 0.90 0.93 0.94 0.93 0.95 1.05
0.18 0.16 0.15 0.14 0.12 0.13 0.14 0.15 0.15 0.15 0.16 0.16 0.17 0.17 0.18 0.22 0.26 0.32 0.38 0.45 0.50 0.54 0.55 0.57 0.61 0.64 0.63 0.62 0.61 0.61 0.65 0.71 0.78 0.76 0.75 0.78 0.83 0.87 0.91 0.97 0.98 0.93 0.89 0.98
0.21 0.19 0.16 0.15 0.14 0.14 0.13 0.13 0.14 0.16 0.18 0.19 0.19 0.19 0.20 0.24 0.29 0.35 0.41 0.44 0.47 0.52 0.57 0.58 0.61 0.64 0.64 0.67 0.65 0.63 0.66 0.69 0.70 0.71 0.74 0.80 0.86 0.88 0.93 0.99 0.97 0.94 0.93 0.99
0.16 0.16 0.14 0.13 0.14 0.13 0.13 0.14 0.15 0.17 0.18 0.19 0.20 0.22 0.23 0.27 0.32 0.38 0.44 0.45 0.45 0.49 0.55 0.58 0.64 0.62 0.63 0.71 0.72 0.67 0.70 0.72 0.74 0.72 0.72 0.85 0.89 0.88 0.92 0.97 0.99 0.98 0.99 1.01
0.15 0.14 0.13 0.12 0.11 0.12 0.14 0.15 0.15 0.15 0.16 0.18 0.21 0.22 0.24 0.29 0.33 0.39 0.43 0.45 0.47 0.52 0.54 0.58 0.59 0.58 0.60 0.69 0.75 0.71 0.75 0.78 0.78 0.75 0.74 0.79 0.85 0.88 0.91 0.94 0.97 1.00 1.01 1.02
0.16 0.13 0.12 0.12 0.12 0.12 0.14 0.16 0.16 0.16 0.17 0.19 0.23 0.27 0.30 0.34 0.37 0.39 0.40 0.40 0.42 0.46 0.48 0.53 0.53 0.55 0.57 0.70 0.79 0.75 0.76 0.77 0.78 0.77 0.77 0.79 0.83 0.87 0.89 0.90 0.94 0.96 0.99 1.02
0.16 0.16 0.15 0.14 0.14 0.16 0.17 0.18 0.19 0.19 0.19 0.20 0.24 0.28 0.32 0.35 0.36 0.37 0.38 0.39 0.40 0.46 0.46 0.45 0.46 0.54 0.63 0.71 0.73 0.72 0.72 0.73 0.76 0.79 0.81 0.81 0.87 0.92 0.90 0.89 0.94 0.96 0.97 0.99
0.18 0.18 0.18 0.19 0.20 0.21 0.19 0.18 0.21 0.22 0.22 0.23 0.25 0.30 0.33 0.35 0.36 0.37 0.39 0.39 0.42 0.49 0.48 0.47 0.53 0.61 0.70 0.68 0.66 0.68 0.69 0.71 0.74 0.78 0.83 0.86 0.89 0.94 0.95 0.94 0.95 0.97 1.01 1.02
0.21 0.20 0.21 0.22 0.23 0.24 0.22 0.21 0.22 0.25 0.27 0.28 0.28 0.31 0.35 0.37 0.37 0.36 0.41 0.47 0.51 0.55 0.52 0.56 0.63 0.67 0.72 0.67 0.64 0.67 0.72 0.76 0.78 0.83 0.87 0.90 0.93 0.96 0.96 0.96 0.97 0.96 0.99 1.01
0.25 0.24 0.23 0.24 0.25 0.28 0.28 0.26 0.26 0.27 0.28 0.31 0.32 0.33 0.37 0.42 0.46 0.45 0.46 0.50 0.55 0.59 0.59 0.64 0.68 0.71 0.68 0.68 0.68 0.71 0.78 0.82 0.89 0.99 1.01 0.97 0.96 0.97 0.93 0.90 0.95 0.99 0.99 0.98
0.29 0.30 0.30 0.30 0.32 0.33 0.33 0.32 0.32 0.30 0.30 0.33 0.35 0.38 0.43 0.46 0.49 0.50 0.52 0.54 0.58 0.62 0.63 0.64 0.67 0.70 0.72 0.76 0.79 0.82 0.88 0.92 0.95 0.96 0.92 0.90 0.90 0.89 0.87 0.85 0.88 0.93 0.95 0.94
0.35 0.35 0.35 0.37 0.38 0.38 0.39 0.40 0.41 0.41 0.39 0.42 0.46 0.46 0.48 0.52 0.56 0.58 0.59 0.60 0.62 0.64 0.67 0.69 0.72 0.76 0.81 0.84 0.88 0.91 0.94 0.95 0.95 0.94 0.90 0.89 0.89 0.86 0.84 0.84 0.86 0.89 0.89 0.86